Current Weather Conditions: station 46183

sailwx.info

Wind from 130 at 5 knots gusting 7

Wave height 0.2 meters (0 feet), 13 second period

Air temperature 15.5° C

Last reported at 2016-Jul-28 13:00 UTC.
Time now 2016-Jul-28 14:37 UTC

Location: N 53°36' W 131°06'.
View on Google Maps.

See reports from other nearby stations

  
Tides and Currents Weather Stations Pressure Air Temp Water Temp Dewpoint Dewpoint Depression Visibility Wind Speed Wind Dir Waves Ship Positions
date/time (UTC)wind fromknots sea level pressurealtimeterstation pressurevisibilityair tempwater tempwave heightnotes
2016-Jul-28 13:00 130 5 gusting 7 15.5 0.2
2016-Jul-28 12:00 180 5 gusting 7 15.7 0.2
2016-Jul-28 11:00 130 3 gusting 5 15.4 0.2
2016-Jul-28 10:00 140 3 gusting 5 15.3 0.2
2016-Jul-28 09:00 130 5 gusting 5 15.4 0.2
2016-Jul-28 08:00 140 3 gusting 5 15.5 0.2
2016-Jul-28 07:00 130 3 gusting 3 15.6 0.2
2016-Jul-28 06:00 140 3 gusting 3 15.5 0.2
2016-Jul-28 05:00 140 3 gusting 5 15.4 0.2
2016-Jul-28 04:00 150 5 gusting 5 15.5 0.2
2016-Jul-28 03:00 160 3 gusting 3 15.8 0.2
2016-Jul-28 02:00 150 3 gusting 3 15.7 0.2
2016-Jul-28 01:00 160 3 gusting 5 15.8 0.2
2016-Jul-28 00:00 160 5 gusting 7 15.6 0.2
2016-Jul-27 23:00 140 5 gusting 5 15.6 0.2
2016-Jul-27 22:00 160 5 gusting 5 15.5 0.3
2016-Jul-27 21:00 150 7 gusting 7 15.2 0.3
2016-Jul-27 20:00 150 7 gusting 7 15.0 0.3
2016-Jul-27 19:00 140 7 gusting 9 14.9 0.3
2016-Jul-27 18:00 120 7 gusting 7 14.5 0.3
2016-Jul-27 17:00 140 7 gusting 9 14.6 0.3
2016-Jul-27 16:00 140 7 gusting 9 14.5 0.3
2016-Jul-27 15:00 140 7 gusting 11 14.3 0.3
2016-Jul-27 14:00 120 7 gusting 11 14.1 0.3
2016-Jul-27 13:00 130 7 gusting 7 14.2 0.3
2016-Jul-27 12:00 150 7 gusting 9 14.6 0.3
2016-Jul-27 11:00 150 5 gusting 7 14.8 0.3
2016-Jul-27 10:00 140 5 gusting 7 14.6 0.3
2016-Jul-27 09:00 150 7 gusting 9 15.0 0.3
2016-Jul-27 08:00 150 7 gusting 9 15.0 0.3
2016-Jul-27 07:00 140 7 gusting 9 15.1 0.3
2016-Jul-27 06:00 140 7 gusting 9 15.1 0.4
2016-Jul-27 05:00 140 9 gusting 11 15.0 0.4
2016-Jul-27 04:00 140 11 gusting 13 15.1 0.4
2016-Jul-27 03:00 140 11 gusting 13 15.3 0.4
2016-Jul-27 02:00 140 11 gusting 13 15.4 0.5
2016-Jul-27 01:00 140 11 gusting 13 15.4 0.4
2016-Jul-27 00:00 140 11 gusting 15 15.4 0.4
2016-Jul-26 23:00 140 11 gusting 13 15.4 0.3
2016-Jul-26 22:00 150 11 gusting 13 15.4 0.3
2016-Jul-26 21:00 140 9 gusting 9 15.5 0.3
2016-Jul-26 20:00 130 7 gusting 7 15.4 0.3
2016-Jul-26 19:00 140 7 gusting 7 15.3 0.2
2016-Jul-26 18:00 160 7 gusting 7 15.2 0.2
2016-Jul-26 17:00 160 5 gusting 7 14.9 0.2
2016-Jul-26 16:00 180 5 gusting 5 14.8 0.2
2016-Jul-26 15:00 200 3 gusting 5 14.9 0.2
2016-Jul-26 14:00 200 3 gusting 3 14.8 0.3